iso_date,Year,Hour,Min,DOY,POS_DOY,Lat,Lon,BP,Ts,Ta,has_bp,has_ts,has_ta,BuoyID,Buoy_Type,Buoy_Owner,Logistics,Hemisphere
2021-11-23T16:00:02Z,2021,16,0,327.6667,327.6667,66.266,-61.669,1011.6,-1.23,-999.0,yes,yes,no,300234066216300,BD2GI,AOML,CANADIAN_COAST_GU,North
2021-11-23T16:59:57Z,2021,17,0,327.7083,327.7083,66.272,-61.656,1009.0,-1.24,-999.0,yes,yes,no,300234066216300,BD2GI,AOML,CANADIAN_COAST_GU,North
2021-11-23T18:00:00Z,2021,18,0,327.75,327.75,66.273,-61.661,1006.4,-1.23,-999.0,yes,yes,no,300234066216300,BD2GI,AOML,CANADIAN_COAST_GU,North
2021-11-23T19:00:02Z,2021,19,0,327.7917,327.7917,66.27,-61.682,1003.7,-1.17,-999.0,yes,yes,no,300234066216300,BD2GI,AOML,CANADIAN_COAST_GU,North
2021-11-23T19:59:57Z,2021,20,0,327.8333,327.8333,66.262,-61.719,1000.4,-1.22,-999.0,yes,yes,no,300234066216300,BD2GI,AOML,CANADIAN_COAST_GU,North
2021-11-23T21:00:00Z,2021,21,0,327.875,327.875,66.256,-61.773,996.6,-1.28,-999.0,yes,yes,no,300234066216300,BD2GI,AOML,CANADIAN_COAST_GU,North
2021-11-23T22:00:02Z,2021,22,0,327.9167,327.9167,66.254,-61.838,992.4,-1.29,-999.0,yes,yes,no,300234066216300,BD2GI,AOML,CANADIAN_COAST_GU,North
2021-11-23T22:59:57Z,2021,23,0,327.9583,327.9583,66.256,-61.89,989.1,-1.25,-999.0,yes,yes,no,300234066216300,BD2GI,AOML,CANADIAN_COAST_GU,North
2021-11-24T00:00:00Z,2021,0,0,328.0,328.0,66.257,-61.92,989.2,-1.23,-999.0,yes,yes,no,300234066216300,BD2GI,AOML,CANADIAN_COAST_GU,North
2021-11-24T01:00:02Z,2021,1,0,328.0417,328.0417,66.26,-61.937,990.6,-1.24,-999.0,yes,yes,no,300234066216300,BD2GI,AOML,CANADIAN_COAST_GU,North
2021-11-24T01:59:57Z,2021,2,0,328.0833,328.0833,66.265,-61.95,991.2,-1.25,-999.0,yes,yes,no,300234066216300,BD2GI,AOML,CANADIAN_COAST_GU,North
2021-11-24T03:00:00Z,2021,3,0,328.125,328.125,66.271,-61.952,990.2,-1.27,-999.0,yes,yes,no,300234066216300,BD2GI,AOML,CANADIAN_COAST_GU,North
2021-11-24T04:00:02Z,2021,4,0,328.1667,328.1667,66.275,-61.949,991.9,-1.26,-999.0,yes,yes,no,300234066216300,BD2GI,AOML,CANADIAN_COAST_GU,North
2021-11-24T04:59:57Z,2021,5,0,328.2083,328.2083,66.279,-61.943,993.6,-1.26,-999.0,yes,yes,no,300234066216300,BD2GI,AOML,CANADIAN_COAST_GU,North
2021-11-24T06:00:00Z,2021,6,0,328.25,328.25,66.28,-61.938,994.8,-1.28,-999.0,yes,yes,no,300234066216300,BD2GI,AOML,CANADIAN_COAST_GU,North
2021-11-24T07:00:02Z,2021,7,0,328.2917,328.2917,66.281,-61.937,995.5,-1.31,-999.0,yes,yes,no,300234066216300,BD2GI,AOML,CANADIAN_COAST_GU,North
2021-11-24T07:59:57Z,2021,8,0,328.3333,328.3333,66.281,-61.939,996.3,-1.3,-999.0,yes,yes,no,300234066216300,BD2GI,AOML,CANADIAN_COAST_GU,North
2021-11-24T09:00:00Z,2021,9,0,328.375,328.375,66.282,-61.942,997.4,-1.3,-999.0,yes,yes,no,300234066216300,BD2GI,AOML,CANADIAN_COAST_GU,North
2021-11-24T10:00:02Z,2021,10,0,328.4167,328.4167,66.283,-61.946,998.3,-1.3,-999.0,yes,yes,no,300234066216300,BD2GI,AOML,CANADIAN_COAST_GU,North
2021-11-24T10:59:57Z,2021,11,0,328.4583,328.4583,66.283,-61.95,999.5,-1.3,-999.0,yes,yes,no,300234066216300,BD2GI,AOML,CANADIAN_COAST_GU,North
2021-11-24T12:00:00Z,2021,12,0,328.5,328.5,66.283,-61.954,1000.5,-1.3,-999.0,yes,yes,no,300234066216300,BD2GI,AOML,CANADIAN_COAST_GU,North
2021-11-24T13:00:02Z,2021,13,0,328.5417,328.5417,66.282,-61.954,1002.1,-1.31,-999.0,yes,yes,no,300234066216300,BD2GI,AOML,CANADIAN_COAST_GU,North
2021-11-24T13:59:57Z,2021,14,0,328.5833,328.5833,66.281,-61.95,1003.8,-1.33,-999.0,yes,yes,no,300234066216300,BD2GI,AOML,CANADIAN_COAST_GU,North
2021-11-24T15:00:00Z,2021,15,0,328.625,328.625,66.282,-61.939,1005.4,-1.32,-999.0,yes,yes,no,300234066216300,BD2GI,AOML,CANADIAN_COAST_GU,North
2021-11-24T16:00:02Z,2021,16,0,328.6667,328.6667,66.28,-61.927,1006.7,-1.32,-999.0,yes,yes,no,300234066216300,BD2GI,AOML,CANADIAN_COAST_GU,North
2021-11-24T16:59:57Z,2021,17,0,328.7083,328.7083,66.279,-61.914,1007.9,-1.33,-999.0,yes,yes,no,300234066216300,BD2GI,AOML,CANADIAN_COAST_GU,North
2021-11-24T18:00:00Z,2021,18,0,328.75,328.75,66.277,-61.905,1009.1,-1.31,-999.0,yes,yes,no,300234066216300,BD2GI,AOML,CANADIAN_COAST_GU,North
2021-11-24T19:00:02Z,2021,19,0,328.7917,328.7917,66.276,-61.905,1010.3,-1.31,-999.0,yes,yes,no,300234066216300,BD2GI,AOML,CANADIAN_COAST_GU,North
2021-11-24T19:59:57Z,2021,20,0,328.8333,328.8333,66.277,-61.909,1011.4,-1.28,-999.0,yes,yes,no,300234066216300,BD2GI,AOML,CANADIAN_COAST_GU,North
2021-11-24T21:00:00Z,2021,21,0,328.875,328.875,66.276,-61.915,1012.3,-1.34,-999.0,yes,yes,no,300234066216300,BD2GI,AOML,CANADIAN_COAST_GU,North
2021-11-24T22:00:02Z,2021,22,0,328.9167,328.9167,66.275,-61.919,1013.7,-1.34,-999.0,yes,yes,no,300234066216300,BD2GI,AOML,CANADIAN_COAST_GU,North
2021-11-24T22:59:57Z,2021,23,0,328.9583,328.9583,66.275,-61.921,1014.9,-1.35,-999.0,yes,yes,no,300234066216300,BD2GI,AOML,CANADIAN_COAST_GU,North
2021-11-25T00:00:00Z,2021,0,0,329.0,329.0,66.275,-61.922,1015.9,-1.34,-999.0,yes,yes,no,300234066216300,BD2GI,AOML,CANADIAN_COAST_GU,North
2021-11-25T01:00:02Z,2021,1,0,329.0417,329.0417,66.273,-61.921,1016.4,-1.36,-999.0,yes,yes,no,300234066216300,BD2GI,AOML,CANADIAN_COAST_GU,North
2021-11-25T01:59:57Z,2021,2,0,329.0833,329.0833,66.271,-61.915,1016.7,-1.38,-999.0,yes,yes,no,300234066216300,BD2GI,AOML,CANADIAN_COAST_GU,North
2021-11-25T03:00:00Z,2021,3,0,329.125,329.125,66.268,-61.904,1017.1,-1.33,-999.0,yes,yes,no,300234066216300,BD2GI,AOML,CANADIAN_COAST_GU,North
2021-11-25T04:00:02Z,2021,4,0,329.1667,329.1667,66.268,-61.886,1017.6,-1.35,-999.0,yes,yes,no,300234066216300,BD2GI,AOML,CANADIAN_COAST_GU,North
2021-11-25T04:59:57Z,2021,5,0,329.2083,329.2083,66.264,-61.877,1018.3,-1.28,-999.0,yes,yes,no,300234066216300,BD2GI,AOML,CANADIAN_COAST_GU,North
2021-11-25T06:00:00Z,2021,6,0,329.25,329.25,66.262,-61.878,1018.5,-1.28,-999.0,yes,yes,no,300234066216300,BD2GI,AOML,CANADIAN_COAST_GU,North
2021-11-25T07:00:02Z,2021,7,0,329.2917,329.2917,66.26,-61.873,1019.0,-1.27,-999.0,yes,yes,no,300234066216300,BD2GI,AOML,CANADIAN_COAST_GU,North
2021-11-25T07:59:57Z,2021,8,0,329.3333,329.3333,66.251,-61.777,1019.1,-1.35,-999.0,yes,yes,no,300234066216300,BD2GI,AOML,CANADIAN_COAST_GU,North
2021-11-25T09:00:00Z,2021,9,0,329.375,329.375,66.258,-61.865,1019.2,-1.32,-999.0,yes,yes,no,300234066216300,BD2GI,AOML,CANADIAN_COAST_GU,North
2021-11-25T10:00:02Z,2021,10,0,329.4167,329.4167,66.256,-61.86,1019.1,-1.29,-999.0,yes,yes,no,300234066216300,BD2GI,AOML,CANADIAN_COAST_GU,North
2021-11-25T10:59:57Z,2021,11,0,329.4583,329.4583,66.256,-61.853,1018.9,-1.34,-999.0,yes,yes,no,300234066216300,BD2GI,AOML,CANADIAN_COAST_GU,North
2021-11-25T12:00:00Z,2021,12,0,329.5,329.5,66.256,-61.841,1019.0,-1.3,-999.0,yes,yes,no,300234066216300,BD2GI,AOML,CANADIAN_COAST_GU,North
2021-11-25T13:00:02Z,2021,13,0,329.5417,329.5417,66.256,-61.819,1018.9,-1.3,-999.0,yes,yes,no,300234066216300,BD2GI,AOML,CANADIAN_COAST_GU,North
2021-11-25T13:59:57Z,2021,14,0,329.5833,329.5833,66.259,-61.782,1018.9,-1.3,-999.0,yes,yes,no,300234066216300,BD2GI,AOML,CANADIAN_COAST_GU,North
2021-11-25T15:00:00Z,2021,15,0,329.625,329.625,66.265,-61.741,1018.8,-1.27,-999.0,yes,yes,no,300234066216300,BD2GI,AOML,CANADIAN_COAST_GU,North
2021-11-25T18:00:00Z,2021,18,0,329.75,329.75,66.284,-61.64,1018.6,-1.21,-999.0,yes,yes,no,300234066216300,BD2GI,AOML,CANADIAN_COAST_GU,North
2021-11-25T19:00:02Z,2021,19,0,329.7917,329.7917,66.285,-61.632,1018.5,-1.21,-999.0,yes,yes,no,300234066216300,BD2GI,AOML,CANADIAN_COAST_GU,North
2021-11-25T19:59:57Z,2021,20,0,329.8333,329.8333,66.284,-61.645,1018.4,-1.2,-999.0,yes,yes,no,300234066216300,BD2GI,AOML,CANADIAN_COAST_GU,North
2021-11-25T21:00:00Z,2021,21,0,329.875,329.875,66.281,-61.672,1018.2,-1.2,-999.0,yes,yes,no,300234066216300,BD2GI,AOML,CANADIAN_COAST_GU,North
2021-11-25T22:00:02Z,2021,22,0,329.9167,329.9167,66.273,-61.7,1017.9,-1.2,-999.0,yes,yes,no,300234066216300,BD2GI,AOML,CANADIAN_COAST_GU,North
2021-11-25T22:59:57Z,2021,23,0,329.9583,329.9583,66.259,-61.733,1017.3,-1.2,-999.0,yes,yes,no,300234066216300,BD2GI,AOML,CANADIAN_COAST_GU,North
2021-11-26T00:00:00Z,2021,0,0,330.0,330.0,66.249,-61.772,1016.5,-1.18,-999.0,yes,yes,no,300234066216300,BD2GI,AOML,CANADIAN_COAST_GU,North
2021-11-26T01:00:02Z,2021,1,0,330.0417,330.0417,66.25,-61.807,1016.0,-1.14,-999.0,yes,yes,no,300234066216300,BD2GI,AOML,CANADIAN_COAST_GU,North
2021-11-26T01:59:57Z,2021,2,0,330.0833,330.0833,66.254,-61.83,1015.6,-1.16,-999.0,yes,yes,no,300234066216300,BD2GI,AOML,CANADIAN_COAST_GU,North
2021-11-26T03:00:00Z,2021,3,0,330.125,330.125,66.258,-61.824,1015.0,-1.2,-999.0,yes,yes,no,300234066216300,BD2GI,AOML,CANADIAN_COAST_GU,North
2021-11-26T04:00:02Z,2021,4,0,330.1667,330.1667,66.26,-61.794,1014.6,-1.19,-999.0,yes,yes,no,300234066216300,BD2GI,AOML,CANADIAN_COAST_GU,North
2021-11-26T04:59:57Z,2021,5,0,330.2083,330.2083,66.263,-61.754,1014.4,-1.2,-999.0,yes,yes,no,300234066216300,BD2GI,AOML,CANADIAN_COAST_GU,North
2021-11-26T06:00:00Z,2021,6,0,330.25,330.25,66.266,-61.713,1014.2,-1.21,-999.0,yes,yes,no,300234066216300,BD2GI,AOML,CANADIAN_COAST_GU,North
2021-11-26T07:00:02Z,2021,7,0,330.2917,330.2917,66.271,-61.677,1014.2,-1.21,-999.0,yes,yes,no,300234066216300,BD2GI,AOML,CANADIAN_COAST_GU,North
2021-11-26T07:59:57Z,2021,8,0,330.3333,330.3333,66.27,-61.653,1014.2,-1.23,-999.0,yes,yes,no,300234066216300,BD2GI,AOML,CANADIAN_COAST_GU,North
2021-11-26T09:00:00Z,2021,9,0,330.375,330.375,66.268,-61.645,1014.5,-1.24,-999.0,yes,yes,no,300234066216300,BD2GI,AOML,CANADIAN_COAST_GU,North
2021-11-26T10:00:02Z,2021,10,0,330.4167,330.4167,66.268,-61.641,1014.7,-1.33,-999.0,yes,yes,no,300234066216300,BD2GI,AOML,CANADIAN_COAST_GU,North
2021-11-26T10:59:57Z,2021,11,0,330.4583,330.4583,66.27,-61.635,1014.6,-1.32,-999.0,yes,yes,no,300234066216300,BD2GI,AOML,CANADIAN_COAST_GU,North
2021-11-26T12:00:00Z,2021,12,0,330.5,330.5,66.271,-61.627,1014.9,-1.29,-999.0,yes,yes,no,300234066216300,BD2GI,AOML,CANADIAN_COAST_GU,North
2021-11-26T13:00:02Z,2021,13,0,330.5417,330.5417,66.272,-61.617,1014.9,-1.34,-999.0,yes,yes,no,300234066216300,BD2GI,AOML,CANADIAN_COAST_GU,North
2021-11-26T13:59:57Z,2021,14,0,330.5833,330.5833,66.275,-61.599,1014.9,-1.29,-999.0,yes,yes,no,300234066216300,BD2GI,AOML,CANADIAN_COAST_GU,North
2021-11-26T15:00:00Z,2021,15,0,330.625,330.625,66.275,-61.574,1015.0,-1.32,-999.0,yes,yes,no,300234066216300,BD2GI,AOML,CANADIAN_COAST_GU,North
2021-11-26T16:00:02Z,2021,16,0,330.6667,330.6667,66.272,-61.555,1014.8,-1.27,-999.0,yes,yes,no,300234066216300,BD2GI,AOML,CANADIAN_COAST_GU,North
2021-11-26T16:59:57Z,2021,17,0,330.7083,330.7083,66.27,-61.537,1014.9,-1.32,-999.0,yes,yes,no,300234066216300,BD2GI,AOML,CANADIAN_COAST_GU,North
2021-11-26T18:00:00Z,2021,18,0,330.75,330.75,66.266,-61.522,1014.9,-1.36,-999.0,yes,yes,no,300234066216300,BD2GI,AOML,CANADIAN_COAST_GU,North
2021-11-26T19:00:02Z,2021,19,0,330.7917,330.7917,66.262,-61.513,1015.0,-1.34,-999.0,yes,yes,no,300234066216300,BD2GI,AOML,CANADIAN_COAST_GU,North
2021-11-26T19:59:57Z,2021,20,0,330.8333,330.8333,66.257,-61.511,1015.4,-1.4,-999.0,yes,yes,no,300234066216300,BD2GI,AOML,CANADIAN_COAST_GU,North
2021-11-26T21:00:00Z,2021,21,0,330.875,330.875,66.251,-61.511,1015.8,-1.38,-999.0,yes,yes,no,300234066216300,BD2GI,AOML,CANADIAN_COAST_GU,North
2021-11-26T22:00:02Z,2021,22,0,330.9167,330.9167,66.244,-61.519,1016.1,-1.38,-999.0,yes,yes,no,300234066216300,BD2GI,AOML,CANADIAN_COAST_GU,North
2021-11-26T22:59:57Z,2021,23,0,330.9583,330.9583,66.234,-61.522,1016.0,-1.35,-999.0,yes,yes,no,300234066216300,BD2GI,AOML,CANADIAN_COAST_GU,North
2021-11-27T00:00:00Z,2021,0,0,331.0,331.0,66.22,-61.528,1015.8,-1.35,-999.0,yes,yes,no,300234066216300,BD2GI,AOML,CANADIAN_COAST_GU,North
2021-11-27T01:00:02Z,2021,1,0,331.0417,331.0417,66.206,-61.54,1015.6,-1.37,-999.0,yes,yes,no,300234066216300,BD2GI,AOML,CANADIAN_COAST_GU,North
2021-11-27T01:59:57Z,2021,2,0,331.0833,331.0833,66.198,-61.548,1015.5,-1.36,-999.0,yes,yes,no,300234066216300,BD2GI,AOML,CANADIAN_COAST_GU,North
2021-11-27T03:00:00Z,2021,3,0,331.125,331.125,66.193,-61.548,1015.6,-1.36,-999.0,yes,yes,no,300234066216300,BD2GI,AOML,CANADIAN_COAST_GU,North
2021-11-27T04:00:02Z,2021,4,0,331.1667,331.1667,66.191,-61.54,1015.5,-1.34,-999.0,yes,yes,no,300234066216300,BD2GI,AOML,CANADIAN_COAST_GU,North
2021-11-27T04:59:57Z,2021,5,0,331.2083,331.2083,66.192,-61.526,1015.3,-1.32,-999.0,yes,yes,no,300234066216300,BD2GI,AOML,CANADIAN_COAST_GU,North
2021-11-27T06:00:00Z,2021,6,0,331.25,331.25,66.196,-61.507,1015.2,-1.32,-999.0,yes,yes,no,300234066216300,BD2GI,AOML,CANADIAN_COAST_GU,North
2021-11-27T07:00:02Z,2021,7,0,331.2917,331.2917,66.201,-61.478,1015.1,-1.32,-999.0,yes,yes,no,300234066216300,BD2GI,AOML,CANADIAN_COAST_GU,North
2021-11-27T07:59:57Z,2021,8,0,331.3333,331.3333,66.2,-61.449,1014.9,-1.34,-999.0,yes,yes,no,300234066216300,BD2GI,AOML,CANADIAN_COAST_GU,North
2021-11-27T09:00:00Z,2021,9,0,331.375,331.375,66.196,-61.427,1014.8,-1.35,-999.0,yes,yes,no,300234066216300,BD2GI,AOML,CANADIAN_COAST_GU,North
2021-11-27T10:00:02Z,2021,10,0,331.4167,331.4167,66.188,-61.412,1014.7,-1.35,-999.0,yes,yes,no,300234066216300,BD2GI,AOML,CANADIAN_COAST_GU,North
2021-11-27T10:59:57Z,2021,11,0,331.4583,331.4583,66.179,-61.396,1014.5,-1.32,-999.0,yes,yes,no,300234066216300,BD2GI,AOML,CANADIAN_COAST_GU,North
2021-11-27T12:00:00Z,2021,12,0,331.5,331.5,66.168,-61.382,1014.1,-1.32,-999.0,yes,yes,no,300234066216300,BD2GI,AOML,CANADIAN_COAST_GU,North
2021-11-27T13:00:02Z,2021,13,0,331.5417,331.5417,66.156,-61.371,1013.8,-1.32,-999.0,yes,yes,no,300234066216300,BD2GI,AOML,CANADIAN_COAST_GU,North
2021-11-27T13:59:57Z,2021,14,0,331.5833,331.5833,66.145,-61.36,1013.4,-1.33,-999.0,yes,yes,no,300234066216300,BD2GI,AOML,CANADIAN_COAST_GU,North
2021-11-27T15:00:00Z,2021,15,0,331.625,331.625,66.135,-61.352,1012.9,-1.34,-999.0,yes,yes,no,300234066216300,BD2GI,AOML,CANADIAN_COAST_GU,North
2021-11-27T16:00:02Z,2021,16,0,331.6667,331.6667,66.127,-61.345,1012.0,-1.35,-999.0,yes,yes,no,300234066216300,BD2GI,AOML,CANADIAN_COAST_GU,North
2021-11-27T16:59:57Z,2021,17,0,331.7083,331.7083,66.121,-61.341,1011.7,-1.37,-999.0,yes,yes,no,300234066216300,BD2GI,AOML,CANADIAN_COAST_GU,North
2021-11-27T18:00:00Z,2021,18,0,331.75,331.75,66.115,-61.339,1011.3,-1.37,-999.0,yes,yes,no,300234066216300,BD2GI,AOML,CANADIAN_COAST_GU,North
2021-11-27T19:00:02Z,2021,19,0,331.7917,331.7917,66.106,-61.338,1010.8,-1.36,-999.0,yes,yes,no,300234066216300,BD2GI,AOML,CANADIAN_COAST_GU,North
2021-11-27T19:59:57Z,2021,20,0,331.8333,331.8333,66.091,-61.342,1010.1,-1.35,-999.0,yes,yes,no,300234066216300,BD2GI,AOML,CANADIAN_COAST_GU,North
2021-11-27T21:00:00Z,2021,21,0,331.875,331.875,66.074,-61.354,1009.9,-1.34,-999.0,yes,yes,no,300234066216300,BD2GI,AOML,CANADIAN_COAST_GU,North
2021-11-27T22:00:02Z,2021,22,0,331.9167,331.9167,66.053,-61.373,1009.8,-1.34,-999.0,yes,yes,no,300234066216300,BD2GI,AOML,CANADIAN_COAST_GU,North
2021-11-27T22:59:57Z,2021,23,0,331.9583,331.9583,66.029,-61.403,1009.0,-1.33,-999.0,yes,yes,no,300234066216300,BD2GI,AOML,CANADIAN_COAST_GU,North
2021-11-28T00:00:00Z,2021,0,0,332.0,332.0,66.006,-61.44,1008.2,-1.33,-999.0,yes,yes,no,300234066216300,BD2GI,AOML,CANADIAN_COAST_GU,North
2021-11-28T01:00:02Z,2021,1,0,332.0417,332.0417,65.983,-61.484,1008.3,-1.34,-999.0,yes,yes,no,300234066216300,BD2GI,AOML,CANADIAN_COAST_GU,North
2021-11-28T01:59:57Z,2021,2,0,332.0833,332.0833,65.963,-61.53,1006.9,-1.33,-999.0,yes,yes,no,300234066216300,BD2GI,AOML,CANADIAN_COAST_GU,North
2021-11-28T03:00:00Z,2021,3,0,332.125,332.125,65.945,-61.573,1006.6,-1.33,-999.0,yes,yes,no,300234066216300,BD2GI,AOML,CANADIAN_COAST_GU,North
2021-11-28T04:00:02Z,2021,4,0,332.1667,332.1667,65.931,-61.615,1006.4,-1.33,-999.0,yes,yes,no,300234066216300,BD2GI,AOML,CANADIAN_COAST_GU,North
2021-11-28T04:59:57Z,2021,5,0,332.2083,332.2083,65.921,-61.651,1006.2,-1.34,-999.0,yes,yes,no,300234066216300,BD2GI,AOML,CANADIAN_COAST_GU,North
2021-11-28T06:00:00Z,2021,6,0,332.25,332.25,65.916,-61.685,1006.2,-1.35,-999.0,yes,yes,no,300234066216300,BD2GI,AOML,CANADIAN_COAST_GU,North
2021-11-28T07:00:02Z,2021,7,0,332.2917,332.2917,65.913,-61.708,1006.3,-1.34,-999.0,yes,yes,no,300234066216300,BD2GI,AOML,CANADIAN_COAST_GU,North
2021-11-28T07:59:57Z,2021,8,0,332.3333,332.3333,65.912,-61.727,1006.2,-1.35,-999.0,yes,yes,no,300234066216300,BD2GI,AOML,CANADIAN_COAST_GU,North
2021-11-28T09:00:00Z,2021,9,0,332.375,332.375,65.907,-61.741,1005.5,-1.33,-999.0,yes,yes,no,300234066216300,BD2GI,AOML,CANADIAN_COAST_GU,North
2021-11-28T10:00:02Z,2021,10,0,332.4167,332.4167,65.9,-61.76,1005.3,-1.34,-999.0,yes,yes,no,300234066216300,BD2GI,AOML,CANADIAN_COAST_GU,North
2021-11-28T10:59:57Z,2021,11,0,332.4583,332.4583,65.893,-61.783,1005.5,-1.34,-999.0,yes,yes,no,300234066216300,BD2GI,AOML,CANADIAN_COAST_GU,North
2021-11-28T12:00:00Z,2021,12,0,332.5,332.5,65.886,-61.815,1005.0,-1.34,-999.0,yes,yes,no,300234066216300,BD2GI,AOML,CANADIAN_COAST_GU,North
2021-11-28T13:00:02Z,2021,13,0,332.5417,332.5417,65.879,-61.85,1005.7,-1.34,-999.0,yes,yes,no,300234066216300,BD2GI,AOML,CANADIAN_COAST_GU,North
2021-11-28T13:59:57Z,2021,14,0,332.5833,332.5833,65.875,-61.886,1006.0,-1.34,-999.0,yes,yes,no,300234066216300,BD2GI,AOML,CANADIAN_COAST_GU,North
2021-11-28T15:00:00Z,2021,15,0,332.625,332.625,65.873,-61.917,1004.8,-1.35,-999.0,yes,yes,no,300234066216300,BD2GI,AOML,CANADIAN_COAST_GU,North
2021-11-28T16:00:02Z,2021,16,0,332.6667,332.6667,65.871,-61.94,1003.2,-1.35,-999.0,yes,yes,no,300234066216300,BD2GI,AOML,CANADIAN_COAST_GU,North
2021-11-28T16:59:57Z,2021,17,0,332.7083,332.7083,65.87,-61.957,1002.2,-1.35,-999.0,yes,yes,no,300234066216300,BD2GI,AOML,CANADIAN_COAST_GU,North
2021-11-28T18:00:00Z,2021,18,0,332.75,332.75,65.869,-61.969,1000.1,-1.35,-999.0,yes,yes,no,300234066216300,BD2GI,AOML,CANADIAN_COAST_GU,North
2021-11-28T19:00:02Z,2021,19,0,332.7917,332.7917,65.868,-61.975,999.7,-1.37,-999.0,yes,yes,no,300234066216300,BD2GI,AOML,CANADIAN_COAST_GU,North
2021-11-28T19:59:57Z,2021,20,0,332.8333,332.8333,65.865,-61.975,998.6,-1.37,-999.0,yes,yes,no,300234066216300,BD2GI,AOML,CANADIAN_COAST_GU,North
2021-11-28T21:00:00Z,2021,21,0,332.875,332.875,65.86,-61.978,997.2,-1.36,-999.0,yes,yes,no,300234066216300,BD2GI,AOML,CANADIAN_COAST_GU,North
2021-11-28T22:00:02Z,2021,22,0,332.9167,332.9167,65.855,-61.986,995.8,-1.35,-999.0,yes,yes,no,300234066216300,BD2GI,AOML,CANADIAN_COAST_GU,North
2021-11-28T22:59:57Z,2021,23,0,332.9583,332.9583,65.847,-61.996,994.3,-1.36,-999.0,yes,yes,no,300234066216300,BD2GI,AOML,CANADIAN_COAST_GU,North
2021-11-29T00:00:00Z,2021,0,0,333.0,333.0,65.838,-62.012,992.9,-1.37,-999.0,yes,yes,no,300234066216300,BD2GI,AOML,CANADIAN_COAST_GU,North
2021-11-29T01:00:02Z,2021,1,0,333.0417,333.0417,65.827,-62.033,992.0,-1.38,-999.0,yes,yes,no,300234066216300,BD2GI,AOML,CANADIAN_COAST_GU,North
2021-11-29T01:59:57Z,2021,2,0,333.0833,333.0833,65.819,-62.054,991.7,-1.38,-999.0,yes,yes,no,300234066216300,BD2GI,AOML,CANADIAN_COAST_GU,North
2021-11-29T03:00:00Z,2021,3,0,333.125,333.125,65.811,-62.074,991.6,-1.4,-999.0,yes,yes,no,300234066216300,BD2GI,AOML,CANADIAN_COAST_GU,North
2021-11-29T04:00:02Z,2021,4,0,333.1667,333.1667,65.806,-62.091,991.8,-1.39,-999.0,yes,yes,no,300234066216300,BD2GI,AOML,CANADIAN_COAST_GU,North
2021-11-29T04:59:57Z,2021,5,0,333.2083,333.2083,65.804,-62.102,991.9,-1.39,-999.0,yes,yes,no,300234066216300,BD2GI,AOML,CANADIAN_COAST_GU,North
2021-11-29T06:00:00Z,2021,6,0,333.25,333.25,65.806,-62.108,991.7,-1.39,-999.0,yes,yes,no,300234066216300,BD2GI,AOML,CANADIAN_COAST_GU,North
2021-11-29T07:00:02Z,2021,7,0,333.2917,333.2917,65.811,-62.107,991.6,-1.39,-999.0,yes,yes,no,300234066216300,BD2GI,AOML,CANADIAN_COAST_GU,North
2021-11-29T07:59:57Z,2021,8,0,333.3333,333.3333,65.82,-62.097,991.8,-1.39,-999.0,yes,yes,no,300234066216300,BD2GI,AOML,CANADIAN_COAST_GU,North
2021-11-29T09:00:00Z,2021,9,0,333.375,333.375,65.832,-62.083,991.7,-1.4,-999.0,yes,yes,no,300234066216300,BD2GI,AOML,CANADIAN_COAST_GU,North
2021-11-29T10:00:02Z,2021,10,0,333.4167,333.4167,65.85,-62.071,991.8,-1.4,-999.0,yes,yes,no,300234066216300,BD2GI,AOML,CANADIAN_COAST_GU,North
2021-11-29T10:59:57Z,2021,11,0,333.4583,333.4583,65.868,-62.066,991.8,-1.4,-999.0,yes,yes,no,300234066216300,BD2GI,AOML,CANADIAN_COAST_GU,North
2021-11-29T12:00:00Z,2021,12,0,333.5,333.5,65.884,-62.066,992.2,-1.41,-999.0,yes,yes,no,300234066216300,BD2GI,AOML,CANADIAN_COAST_GU,North
2021-11-29T13:00:02Z,2021,13,0,333.5417,333.5417,65.895,-62.073,992.4,-1.41,-999.0,yes,yes,no,300234066216300,BD2GI,AOML,CANADIAN_COAST_GU,North
2021-11-29T13:59:57Z,2021,14,0,333.5833,333.5833,65.902,-62.081,992.5,-1.41,-999.0,yes,yes,no,300234066216300,BD2GI,AOML,CANADIAN_COAST_GU,North
2021-11-29T15:00:00Z,2021,15,0,333.625,333.625,65.905,-62.087,992.6,-1.42,-999.0,yes,yes,no,300234066216300,BD2GI,AOML,CANADIAN_COAST_GU,North
2021-11-29T16:00:02Z,2021,16,0,333.6667,333.6667,65.907,-62.09,992.9,-1.43,-999.0,yes,yes,no,300234066216300,BD2GI,AOML,CANADIAN_COAST_GU,North
2021-11-29T16:59:57Z,2021,17,0,333.7083,333.7083,65.91,-62.093,993.0,-1.42,-999.0,yes,yes,no,300234066216300,BD2GI,AOML,CANADIAN_COAST_GU,North
2021-11-29T18:00:00Z,2021,18,0,333.75,333.75,65.913,-62.091,993.1,-1.43,-999.0,yes,yes,no,300234066216300,BD2GI,AOML,CANADIAN_COAST_GU,North
2021-11-29T19:00:02Z,2021,19,0,333.7917,333.7917,65.918,-62.085,993.4,-1.43,-999.0,yes,yes,no,300234066216300,BD2GI,AOML,CANADIAN_COAST_GU,North
2021-11-29T19:59:57Z,2021,20,0,333.8333,333.8333,65.923,-62.081,993.8,-1.43,-999.0,yes,yes,no,300234066216300,BD2GI,AOML,CANADIAN_COAST_GU,North
2021-11-29T21:00:00Z,2021,21,0,333.875,333.875,65.929,-62.077,994.1,-1.44,-999.0,yes,yes,no,300234066216300,BD2GI,AOML,CANADIAN_COAST_GU,North
2021-11-29T22:00:02Z,2021,22,0,333.9167,333.9167,65.935,-62.074,994.6,-1.44,-999.0,yes,yes,no,300234066216300,BD2GI,AOML,CANADIAN_COAST_GU,North
2021-11-29T22:59:57Z,2021,23,0,333.9583,333.9583,65.936,-62.073,994.9,-1.43,-999.0,yes,yes,no,300234066216300,BD2GI,AOML,CANADIAN_COAST_GU,North
2021-11-30T00:00:00Z,2021,0,0,334.0,334.0,65.934,-62.074,995.2,-1.45,-999.0,yes,yes,no,300234066216300,BD2GI,AOML,CANADIAN_COAST_GU,North
2021-11-30T01:00:02Z,2021,1,0,334.0417,334.0417,65.93,-62.08,995.5,-1.46,-999.0,yes,yes,no,300234066216300,BD2GI,AOML,CANADIAN_COAST_GU,North
2021-11-30T01:59:57Z,2021,2,0,334.0833,334.0833,65.925,-62.091,995.8,-1.45,-999.0,yes,yes,no,300234066216300,BD2GI,AOML,CANADIAN_COAST_GU,North
2021-11-30T03:00:00Z,2021,3,0,334.125,334.125,65.921,-62.098,996.1,-1.42,-999.0,yes,yes,no,300234066216300,BD2GI,AOML,CANADIAN_COAST_GU,North
2021-11-30T04:00:02Z,2021,4,0,334.1667,334.1667,65.917,-62.105,996.7,-1.38,-999.0,yes,yes,no,300234066216300,BD2GI,AOML,CANADIAN_COAST_GU,North
2021-11-30T04:59:57Z,2021,5,0,334.2083,334.2083,65.913,-62.111,997.0,-1.36,-999.0,yes,yes,no,300234066216300,BD2GI,AOML,CANADIAN_COAST_GU,North
2021-11-30T06:00:00Z,2021,6,0,334.25,334.25,65.912,-62.115,997.9,-1.42,-999.0,yes,yes,no,300234066216300,BD2GI,AOML,CANADIAN_COAST_GU,North
2021-11-30T07:00:02Z,2021,7,0,334.2917,334.2917,65.914,-62.118,998.8,-1.44,-999.0,yes,yes,no,300234066216300,BD2GI,AOML,CANADIAN_COAST_GU,North
2021-11-30T07:59:57Z,2021,8,0,334.3333,334.3333,65.917,-62.119,999.6,-1.46,-999.0,yes,yes,no,300234066216300,BD2GI,AOML,CANADIAN_COAST_GU,North
2021-11-30T09:00:00Z,2021,9,0,334.375,334.375,65.92,-62.121,1000.2,-1.37,-999.0,yes,yes,no,300234066216300,BD2GI,AOML,CANADIAN_COAST_GU,North
2021-11-30T10:00:02Z,2021,10,0,334.4167,334.4167,65.922,-62.122,1001.0,-1.37,-999.0,yes,yes,no,300234066216300,BD2GI,AOML,CANADIAN_COAST_GU,North
2021-11-30T10:59:57Z,2021,11,0,334.4583,334.4583,65.924,-62.122,1001.6,-1.45,-999.0,yes,yes,no,300234066216300,BD2GI,AOML,CANADIAN_COAST_GU,North
2021-11-30T12:00:00Z,2021,12,0,334.5,334.5,65.924,-62.12,1002.4,-1.39,-999.0,yes,yes,no,300234066216300,BD2GI,AOML,CANADIAN_COAST_GU,North
2021-11-30T13:00:02Z,2021,13,0,334.5417,334.5417,65.922,-62.121,1003.2,-1.4,-999.0,yes,yes,no,300234066216300,BD2GI,AOML,CANADIAN_COAST_GU,North
2021-11-30T13:59:57Z,2021,14,0,334.5833,334.5833,65.92,-62.121,1003.6,-1.5,-999.0,yes,yes,no,300234066216300,BD2GI,AOML,CANADIAN_COAST_GU,North
2021-11-30T15:00:00Z,2021,15,0,334.625,334.625,65.915,-62.122,1004.1,-1.42,-999.0,yes,yes,no,300234066216300,BD2GI,AOML,CANADIAN_COAST_GU,North